﻿測定場所 (Monitoring sites),日付 (Measurement date),時間 (Measurement time),線量率 最大値 (max) μGy/h,線量率 最小値 (min) μGy/h,線量率 平均値 (average) μGy/h,
足立 (Adachi),2022-01-16,23:01～24:00,0.0323,0.0277,0.0300,
足立 (Adachi),2022-01-16,22:01～23:00,0.0315,0.0279,0.0295,
足立 (Adachi),2022-01-16,21:01～22:00,0.0316,0.0269,0.0296,
足立 (Adachi),2022-01-16,20:01～21:00,0.0313,0.0276,0.0296,
足立 (Adachi),2022-01-16,19:01～20:00,0.0319,0.0275,0.0293,
足立 (Adachi),2022-01-16,18:01～19:00,0.0312,0.0274,0.0291,
足立 (Adachi),2022-01-16,17:01～18:00,0.0307,0.0270,0.0292,
足立 (Adachi),2022-01-16,16:01～17:00,0.0309,0.0265,0.0287,
足立 (Adachi),2022-01-16,15:01～16:00,0.0307,0.0272,0.0291,
足立 (Adachi),2022-01-16,14:01～15:00,0.0317,0.0275,0.0295,
足立 (Adachi),2022-01-16,13:01～14:00,0.0315,0.0278,0.0295,
足立 (Adachi),2022-01-16,12:01～13:00,0.0322,0.0281,0.0298,
足立 (Adachi),2022-01-16,11:01～12:00,0.0317,0.0275,0.0296,
足立 (Adachi),2022-01-16,10:01～11:00,0.0314,0.0282,0.0300,
足立 (Adachi),2022-01-16,09:01～10:00,0.0315,0.0286,0.0298,
足立 (Adachi),2022-01-16,08:01～09:00,0.0314,0.0277,0.0296,
足立 (Adachi),2022-01-16,07:01～08:00,0.0318,0.0270,0.0297,
足立 (Adachi),2022-01-16,06:01～07:00,0.0325,0.0274,0.0296,
足立 (Adachi),2022-01-16,05:01～06:00,0.0319,0.0276,0.0296,
足立 (Adachi),2022-01-16,04:01～05:00,0.0310,0.0275,0.0294,
足立 (Adachi),2022-01-16,03:01～04:00,0.0319,0.0275,0.0292,
足立 (Adachi),2022-01-16,02:01～03:00,0.0315,0.0270,0.0289,
足立 (Adachi),2022-01-16,01:01～02:00,0.0303,0.0272,0.0290,
足立 (Adachi),2022-01-16,00:01～01:00,0.0306,0.0271,0.0288,
足立 (Adachi),2022-01-15,23:01～24:00,0.0315,0.0272,0.0289,
足立 (Adachi),2022-01-15,22:01～23:00,0.0309,0.0268,0.0287,
足立 (Adachi),2022-01-15,21:01～22:00,0.0311,0.0267,0.0287,
足立 (Adachi),2022-01-15,20:01～21:00,0.0306,0.0273,0.0288,
足立 (Adachi),2022-01-15,19:01～20:00,0.0315,0.0271,0.0288,
足立 (Adachi),2022-01-15,18:01～19:00,0.0300,0.0270,0.0285,
足立 (Adachi),2022-01-15,17:01～18:00,0.0304,0.0268,0.0286,
足立 (Adachi),2022-01-15,16:01～17:00,0.0302,0.0263,0.0285,
足立 (Adachi),2022-01-15,15:01～16:00,0.0296,0.0265,0.0285,
足立 (Adachi),2022-01-15,14:01～15:00,0.0304,0.0263,0.0284,
足立 (Adachi),2022-01-15,13:01～14:00,0.0305,0.0267,0.0286,
足立 (Adachi),2022-01-15,12:01～13:00,0.0301,0.0263,0.0283,
足立 (Adachi),2022-01-15,11:01～12:00,0.0303,0.0271,0.0288,
足立 (Adachi),2022-01-15,10:01～11:00,0.0309,0.0265,0.0285,
足立 (Adachi),2022-01-15,09:01～10:00,0.0306,0.0270,0.0286,
足立 (Adachi),2022-01-15,08:01～09:00,0.0297,0.0265,0.0284,
足立 (Adachi),2022-01-15,07:01～08:00,0.0307,0.0266,0.0288,
足立 (Adachi),2022-01-15,06:01～07:00,0.0302,0.0264,0.0286,
足立 (Adachi),2022-01-15,05:01～06:00,0.0311,0.0272,0.0292,
足立 (Adachi),2022-01-15,04:01～05:00,0.0315,0.0268,0.0289,
足立 (Adachi),2022-01-15,03:01～04:00,0.0308,0.0268,0.0290,
足立 (Adachi),2022-01-15,02:01～03:00,0.0308,0.0270,0.0291,
足立 (Adachi),2022-01-15,01:01～02:00,0.0304,0.0261,0.0289,
足立 (Adachi),2022-01-15,00:01～01:00,0.0314,0.0271,0.0287,
足立 (Adachi),2022-01-14,23:01～24:00,0.0304,0.0269,0.0288,
足立 (Adachi),2022-01-14,22:01～23:00,0.0310,0.0273,0.0291,
足立 (Adachi),2022-01-14,21:01～22:00,0.0312,0.0274,0.0292,
足立 (Adachi),2022-01-14,20:01～21:00,0.0312,0.0273,0.0292,
足立 (Adachi),2022-01-14,19:01～20:00,0.0311,0.0279,0.0293,
足立 (Adachi),2022-01-14,18:01～19:00,0.0311,0.0274,0.0296,
足立 (Adachi),2022-01-14,17:01～18:00,0.0310,0.0262,0.0291,
足立 (Adachi),2022-01-14,16:01～17:00,0.0313,0.0270,0.0292,
足立 (Adachi),2022-01-14,15:01～16:00,0.0308,0.0270,0.0293,
足立 (Adachi),2022-01-14,14:01～15:00,0.0316,0.0276,0.0295,
足立 (Adachi),2022-01-14,13:01～14:00,0.0321,0.0276,0.0295,
足立 (Adachi),2022-01-14,12:01～13:00,0.0313,0.0279,0.0295,
足立 (Adachi),2022-01-14,11:01～12:00,0.0320,0.0280,0.0298,
足立 (Adachi),2022-01-14,10:01～11:00,0.0320,0.0283,0.0301,
足立 (Adachi),2022-01-14,09:01～10:00,0.0321,0.0283,0.0303,
足立 (Adachi),2022-01-14,08:01～09:00,0.0324,0.0276,0.0302,
足立 (Adachi),2022-01-14,07:01～08:00,0.0315,0.0275,0.0298,
足立 (Adachi),2022-01-14,06:01～07:00,0.0315,0.0280,0.0299,
足立 (Adachi),2022-01-14,05:01～06:00,0.0316,0.0273,0.0298,
足立 (Adachi),2022-01-14,04:01～05:00,0.0319,0.0274,0.0297,
足立 (Adachi),2022-01-14,03:01～04:00,0.0323,0.0273,0.0296,
足立 (Adachi),2022-01-14,02:01～03:00,0.0320,0.0278,0.0296,
足立 (Adachi),2022-01-14,01:01～02:00,0.0313,0.0265,0.0295,
足立 (Adachi),2022-01-14,00:01～01:00,0.0313,0.0275,0.0295,
足立 (Adachi),2022-01-13,23:01～24:00,0.0309,0.0281,0.0295,
足立 (Adachi),2022-01-13,22:01～23:00,0.0310,0.0268,0.0293,
足立 (Adachi),2022-01-13,21:01～22:00,0.0318,0.0269,0.0295,
足立 (Adachi),2022-01-13,20:01～21:00,0.0311,0.0280,0.0295,
足立 (Adachi),2022-01-13,19:01～20:00,0.0321,0.0278,0.0299,
足立 (Adachi),2022-01-13,18:01～19:00,0.0326,0.0279,0.0298,
足立 (Adachi),2022-01-13,17:01～18:00,0.0314,0.0277,0.0293,
足立 (Adachi),2022-01-13,16:01～17:00,0.0312,0.0277,0.0293,
足立 (Adachi),2022-01-13,15:01～16:00,0.0318,0.0278,0.0294,
足立 (Adachi),2022-01-13,14:01～15:00,0.0317,0.0278,0.0297,
足立 (Adachi),2022-01-13,13:01～14:00,0.0316,0.0268,0.0294,
足立 (Adachi),2022-01-13,12:01～13:00,0.0309,0.0274,0.0293,
足立 (Adachi),2022-01-13,11:01～12:00,0.0316,0.0275,0.0295,
足立 (Adachi),2022-01-13,10:01～11:00,0.0320,0.0276,0.0298,
足立 (Adachi),2022-01-13,09:01～10:00,0.0319,0.0280,0.0298,
足立 (Adachi),2022-01-13,08:01～09:00,0.0313,0.0268,0.0287,
足立 (Adachi),2022-01-13,07:01～08:00,0.0313,0.0261,0.0289,
足立 (Adachi),2022-01-13,06:01～07:00,0.0310,0.0270,0.0288,
足立 (Adachi),2022-01-13,05:01～06:00,0.0311,0.0267,0.0291,
足立 (Adachi),2022-01-13,04:01～05:00,0.0311,0.0274,0.0293,
足立 (Adachi),2022-01-13,03:01～04:00,0.0315,0.0278,0.0295,
足立 (Adachi),2022-01-13,02:01～03:00,0.0309,0.0274,0.0292,
足立 (Adachi),2022-01-13,01:01～02:00,0.0313,0.0280,0.0293,
足立 (Adachi),2022-01-13,00:01～01:00,0.0309,0.0271,0.0291,
足立 (Adachi),2022-01-12,23:01～24:00,0.0325,0.0272,0.0297,
足立 (Adachi),2022-01-12,22:01～23:00,0.0316,0.0280,0.0298,
足立 (Adachi),2022-01-12,21:01～22:00,0.0319,0.0269,0.0298,
足立 (Adachi),2022-01-12,20:01～21:00,0.0316,0.0282,0.0300,
足立 (Adachi),2022-01-12,19:01～20:00,0.0316,0.0273,0.0297,
足立 (Adachi),2022-01-12,18:01～19:00,0.0320,0.0277,0.0295,
足立 (Adachi),2022-01-12,17:01～18:00,0.0313,0.0274,0.0294,
足立 (Adachi),2022-01-12,16:01～17:00,0.0315,0.0275,0.0295,
足立 (Adachi),2022-01-12,15:01～16:00,0.0320,0.0282,0.0295,
足立 (Adachi),2022-01-12,14:01～15:00,0.0315,0.0276,0.0296,
足立 (Adachi),2022-01-12,13:01～14:00,0.0313,0.0276,0.0295,
足立 (Adachi),2022-01-12,12:01～13:00,0.0316,0.0275,0.0296,
足立 (Adachi),2022-01-12,11:01～12:00,0.0309,0.0279,0.0294,
足立 (Adachi),2022-01-12,10:01～11:00,0.0312,0.0276,0.0293,
足立 (Adachi),2022-01-12,09:01～10:00,0.0316,0.0268,0.0292,
足立 (Adachi),2022-01-12,08:01～09:00,0.0325,0.0270,0.0292,
足立 (Adachi),2022-01-12,07:01～08:00,0.0321,0.0259,0.0295,
足立 (Adachi),2022-01-12,06:01～07:00,0.0313,0.0274,0.0298,
足立 (Adachi),2022-01-12,05:01～06:00,0.0316,0.0277,0.0297,
足立 (Adachi),2022-01-12,04:01～05:00,0.0314,0.0273,0.0296,
足立 (Adachi),2022-01-12,03:01～04:00,0.0323,0.0285,0.0301,
足立 (Adachi),2022-01-12,02:01～03:00,0.0321,0.0278,0.0298,
足立 (Adachi),2022-01-12,01:01～02:00,0.0325,0.0280,0.0300,
足立 (Adachi),2022-01-12,00:01～01:00,0.0334,0.0290,0.0308,
足立 (Adachi),2022-01-11,23:01～24:00,0.0359,0.0309,0.0332,
足立 (Adachi),2022-01-11,22:01～23:00,0.0362,0.0296,0.0318,
足立 (Adachi),2022-01-11,21:01～22:00,0.0325,0.0275,0.0297,
足立 (Adachi),2022-01-11,20:01～21:00,0.0318,0.0284,0.0299,
足立 (Adachi),2022-01-11,19:01～20:00,0.0364,0.0295,0.0322,
足立 (Adachi),2022-01-11,18:01～19:00,0.0475,0.0344,0.0401,
足立 (Adachi),2022-01-11,17:01～18:00,0.0462,0.0349,0.0408,
足立 (Adachi),2022-01-11,16:01～17:00,0.0402,0.0345,0.0370,
足立 (Adachi),2022-01-11,15:01～16:00,0.0526,0.0356,0.0429,
足立 (Adachi),2022-01-11,14:01～15:00,0.0547,0.0443,0.0501,
足立 (Adachi),2022-01-11,13:01～14:00,0.0486,0.0355,0.0402,
足立 (Adachi),2022-01-11,12:01～13:00,0.0363,0.0285,0.0325,
足立 (Adachi),2022-01-11,11:01～12:00,0.0355,0.0291,0.0319,
足立 (Adachi),2022-01-11,10:01～11:00,0.0425,0.0335,0.0380,
足立 (Adachi),2022-01-11,09:01～10:00,0.0484,0.0384,0.0436,
足立 (Adachi),2022-01-11,08:01～09:00,0.0492,0.0422,0.0456,
足立 (Adachi),2022-01-11,07:01～08:00,0.0468,0.0386,0.0423,
足立 (Adachi),2022-01-11,06:01～07:00,0.0421,0.0331,0.0369,
足立 (Adachi),2022-01-11,05:01～06:00,0.0342,0.0281,0.0310,
足立 (Adachi),2022-01-11,04:01～05:00,0.0312,0.0283,0.0299,
足立 (Adachi),2022-01-11,03:01～04:00,0.0317,0.0277,0.0298,
足立 (Adachi),2022-01-11,02:01～03:00,0.0313,0.0269,0.0293,
足立 (Adachi),2022-01-11,01:01～02:00,0.0316,0.0280,0.0295,
足立 (Adachi),2022-01-11,00:01～01:00,0.0314,0.0272,0.0296,
足立 (Adachi),2022-01-10,23:01～24:00,0.0317,0.0278,0.0294,
足立 (Adachi),2022-01-10,22:01～23:00,0.0324,0.0271,0.0295,
足立 (Adachi),2022-01-10,21:01～22:00,0.0315,0.0275,0.0292,
足立 (Adachi),2022-01-10,20:01～21:00,0.0314,0.0281,0.0297,
足立 (Adachi),2022-01-10,19:01～20:00,0.0321,0.0279,0.0294,
足立 (Adachi),2022-01-10,18:01～19:00,0.0311,0.0275,0.0293,
足立 (Adachi),2022-01-10,17:01～18:00,0.0320,0.0271,0.0292,
足立 (Adachi),2022-01-10,16:01～17:00,0.0313,0.0271,0.0293,
足立 (Adachi),2022-01-10,15:01～16:00,0.0317,0.0272,0.0293,
足立 (Adachi),2022-01-10,14:01～15:00,0.0312,0.0275,0.0296,
足立 (Adachi),2022-01-10,13:01～14:00,0.0317,0.0280,0.0299,
足立 (Adachi),2022-01-10,12:01～13:00,0.0321,0.0275,0.0299,
足立 (Adachi),2022-01-10,11:01～12:00,0.0324,0.0280,0.0299,
足立 (Adachi),2022-01-10,10:01～11:00,0.0316,0.0277,0.0300,
足立 (Adachi),2022-01-10,09:01～10:00,0.0318,0.0280,0.0301,
足立 (Adachi),2022-01-10,08:01～09:00,0.0322,0.0281,0.0301,
足立 (Adachi),2022-01-10,07:01～08:00,0.0317,0.0276,0.0299,
足立 (Adachi),2022-01-10,06:01～07:00,0.0317,0.0282,0.0303,
足立 (Adachi),2022-01-10,05:01～06:00,0.0321,0.0288,0.0304,
足立 (Adachi),2022-01-10,04:01～05:00,0.0315,0.0280,0.0300,
足立 (Adachi),2022-01-10,03:01～04:00,0.0315,0.0276,0.0299,
足立 (Adachi),2022-01-10,02:01～03:00,0.0324,0.0282,0.0300,
足立 (Adachi),2022-01-10,01:01～02:00,0.0316,0.0277,0.0298,
足立 (Adachi),2022-01-10,00:01～01:00,0.0318,0.0271,0.0298,
